Tracking 20093 objects as of 16-Dec-2019
HD Live streaming from Space Station
objects crossing your sky now

KALAMSAT-V2/PSLV

Track KALAMSAT-V2/PSLV now!
10-day predictions
KALAMSAT-V2/PSLV is classified as:


NORAD ID: 43948
Int'l Code: 2019-006B
Perigee: 451.3 km
Apogee: 456.2 km
Inclination: 98.8 °
Period: 93.5 minutes
Semi major axis: 6824 km
RCS: Unknown
Launch date: January 24, 2019
Source: India (IND)
Launch site: SRIHARIKOTA (SRI)

Uplink (MHz):
Downlink (MHz): 436.500
Beacon (MHz):
Mode:
Call sign:
Status: Unknown

aabbcc
Your satellite tracking list
Your tracking list is empty




NASA's NSSDC Master Catalog

Two Line Element Set (TLE):
1 43948U 19006B   19349.85710106 +.00001100 +00000-0 +30615-4 0  9999
2 43948 098.8221 329.3714 0003539 197.4091 162.7041 15.39827898050006
Source of the keplerian elements: AFSPC